Weather History for EINN - June, 2013

Change the Weather History Date:

Tuesday, June 25, 2013

  Actual Average Record
Temperature  
Mean Temperature 58 °F -  
Max Temperature 62 °F 66 °F 75 °F (1999)
Min Temperature 53 °F 53 °F 44 °F (2000)
Degree Days  
Heating Degree Days 8    
Growing Degree Days 8 (Base 50)    
Moisture  
Dew Point 52 °F    
Average Humidity 83    
Maximum Humidity 94    
Minimum Humidity 63    
Precipitation  
Precipitation 0.00 in 0.08 in - ()
Sea Level Pressure  
Sea Level Pressure 30.38 in    
Wind  
Wind Speed 7 mph ()    
Max Wind Speed 15 mph    
Max Gust Speed -    
Visibility 6.5 miles    
Events      
Averages and records for this station are not official NWS values.
T = Trace of Precipitation, MM = Missing Value Source: Averaged Metar Reports

Daily Weather History Graph

Daily Weather History Graph

Search for Another Location

Airport or City:

Trip Planner

Search our weather history database for the weather conditions in past years. The results will help you decide how hot, cold, wet, or windy it might be!

Date:

Astronomy

Jun. 25, 2013 Rise Set
Actual Time 5:12 AM IST 10:03 PM IST
Civil Twilight 4:22 AM IST 10:54 PM IST
Nautical Twilight 2:57 AM IST 12:19 AM IST
Astronomical Twilight Sun does not set Sun does not set
Moon 11:11 PM IST (6/25) 7:58 AM IST (6/25)
Length of Visible Light 18h 32m
Length of Day
16h 51m
Waning Gibbous, 94% of the Moon is Illuminated
Jun 25
Waning Gibbous
Jun 30
Last Quarter
Jul 8
New
Jul 16
First Quarter
Jul 22
Full

Hourly Weather History & Observations

Time (IST) Temp. Dew Point Humidity Pressure Visibility Wind Dir Wind Speed Gust Speed Precip Events Conditions
12:00 AM 55.4 °F 50.0 °F 82% 30.30 in - SSE 8.1 mph - N/A   Clear
12:30 AM 55.4 °F 51.8 °F 88% 30.30 in - ESE 5.8 mph - N/A   Clear
1:00 AM 56 °F 51 °F 77% 30.31 in 19 mi ESE 6.7 mph - -   Mostly Cloudy
1:00 AM 55.4 °F 50.0 °F 82% 30.30 in - ESE 5.8 mph - N/A   Clear
1:30 AM 55.4 °F 50.0 °F 82% 30.30 in 6.2 mi SE 8.1 mph - N/A   Mostly Cloudy
2:00 AM 55.4 °F 50.0 °F 82% 30.30 in 6.2 mi ESE 8.1 mph - N/A   Mostly Cloudy
2:30 AM 55.4 °F 50.0 °F 82% 30.30 in 6.2 mi ESE 8.1 mph - N/A   Mostly Cloudy
3:00 AM 55.4 °F 51.8 °F 88% 30.30 in 6.2 mi SE 9.2 mph - N/A   Mostly Cloudy
3:30 AM 53.6 °F 51.8 °F 94% 30.30 in 6.2 mi SE 6.9 mph - N/A   Mostly Cloudy
4:00 AM 53.6 °F 51.8 °F 94% 30.30 in 6.2 mi ESE 5.8 mph - N/A   Mostly Cloudy
4:30 AM 53.6 °F 51.8 °F 94% 30.33 in 6.2 mi SE 5.8 mph - N/A   Mostly Cloudy
5:00 AM 53.6 °F 51.8 °F 94% 30.33 in 6.2 mi SSE 4.6 mph - N/A   Mostly Cloudy
5:30 AM 53.6 °F 51.8 °F 94% 30.33 in 6.2 mi SSE 3.5 mph - N/A   Mostly Cloudy
6:00 AM 53.6 °F 51.8 °F 94% 30.33 in 6.2 mi SE 4.6 mph - N/A   Mostly Cloudy
6:30 AM 53.6 °F 51.8 °F 94% 30.33 in 6.2 mi SSE 4.6 mph - N/A   Mostly Cloudy
7:00 AM 54 °F 52 °F 91% 30.35 in 25 mi SSE 4.5 mph - -   Partly Cloudy
7:00 AM 55.4 °F 51.8 °F 88% 30.33 in 6.2 mi SSE 4.6 mph - N/A   Mostly Cloudy
7:30 AM 55.4 °F 51.8 °F 88% 30.33 in 6.2 mi SSE 4.6 mph - N/A   Mostly Cloudy
8:00 AM 57.2 °F 53.6 °F 88% 30.36 in 6.2 mi SSE 4.6 mph - N/A   Mostly Cloudy
8:30 AM 57.2 °F 53.6 °F 88% 30.36 in 6.2 mi SW 5.8 mph - N/A   Mostly Cloudy
9:00 AM 57.2 °F 53.6 °F 88% 30.36 in 5.6 mi SW 6.9 mph - N/A   Light Drizzle
9:30 AM 55.4 °F 53.6 °F 94% 30.36 in 3.7 mi SSW 5.8 mph - N/A   Light Drizzle
10:00 AM 57.2 °F 55.4 °F 94% 30.36 in 3.7 mi South 5.8 mph - N/A   Mostly Cloudy
10:30 AM 59.0 °F 55.4 °F 88% 30.36 in 5.0 mi SSW 6.9 mph - N/A   Light Drizzle
11:00 AM 59.0 °F 55.4 °F 88% 30.36 in 6.2 mi SSW 6.9 mph - N/A   Mostly Cloudy
11:30 AM 60.8 °F 55.4 °F 82% 30.36 in 6.2 mi SW 10.4 mph - N/A   Mostly Cloudy
12:00 PM 60.8 °F 55.4 °F 82% 30.39 in 6.2 mi WSW 12.7 mph - N/A   Mostly Cloudy
12:30 PM 59.0 °F 55.4 °F 88% 30.39 in 6.2 mi WSW 11.5 mph - N/A   Mostly Cloudy
1:00 PM 61 °F 55 °F 75% 30.41 in 6 mi West 13.4 mph - -   Partly Cloudy
1:00 PM 60.8 °F 55.4 °F 82% 30.39 in 6.2 mi West 13.8 mph - N/A   Mostly Cloudy
1:30 PM 59.0 °F 55.4 °F 88% 30.42 in 3.1 mi West 10.4 mph - N/A   Light Drizzle
2:00 PM 60.8 °F 55.4 °F 82% 30.42 in 6.2 mi West 15.0 mph - N/A   Mostly Cloudy
2:30 PM 60.8 °F 55.4 °F 82% 30.42 in 6.2 mi West 15.0 mph - N/A   Mostly Cloudy
3:00 PM 60.8 °F 53.6 °F 77% 30.42 in 6.2 mi West 13.8 mph - N/A   Mostly Cloudy
3:30 PM 60.8 °F 51.8 °F 72% 30.42 in 6.2 mi West 15.0 mph - N/A   Mostly Cloudy
4:00 PM 60.8 °F 51.8 °F 72% 30.42 in 6.2 mi West 12.7 mph - N/A   Mostly Cloudy
4:30 PM 60.8 °F 50.0 °F 68% 30.42 in 6.2 mi West 10.4 mph - N/A   Mostly Cloudy
5:00 PM 60.8 °F 51.8 °F 72% 30.42 in 6.2 mi West 12.7 mph - N/A   Mostly Cloudy
5:30 PM 60.8 °F 50.0 °F 68% 30.45 in 6.2 mi WSW 10.4 mph - N/A   Mostly Cloudy
6:00 PM 62.6 °F 50.0 °F 63% 30.45 in 6.2 mi West 13.8 mph - N/A   Scattered Clouds
6:30 PM 60.8 °F 50.0 °F 68% 30.45 in 6.2 mi West 12.7 mph - N/A   Scattered Clouds
7:00 PM 59 °F 51 °F 66% 30.46 in 16 mi West 11.2 mph - -   Partly Cloudy
7:00 PM 59.0 °F 50.0 °F 72% 30.45 in 6.2 mi West 11.5 mph - N/A   Scattered Clouds
7:30 PM 59.0 °F 51.8 °F 77% 30.45 in 6.2 mi West 10.4 mph - N/A   Scattered Clouds
8:00 PM 59.0 °F 50.0 °F 72% 30.45 in 6.2 mi West 9.2 mph - N/A   Mostly Cloudy
8:30 PM 59.0 °F 50.0 °F 72% 30.45 in 6.2 mi West 9.2 mph - N/A   Partly Cloudy
9:00 PM 57.2 °F 50.0 °F 77% 30.45 in 6.2 mi West 9.2 mph - N/A   Scattered Clouds
9:30 PM 55.4 °F 48.2 °F 77% 30.48 in 6.2 mi West 5.8 mph - N/A   Partly Cloudy
10:00 PM 55.4 °F 48.2 °F 77% 30.48 in 6.2 mi West 5.8 mph - N/A   Mostly Cloudy
10:30 PM 55.4 °F 51.8 °F 88% 30.48 in 6.2 mi West 8.1 mph - N/A   Mostly Cloudy
11:00 PM 55.4 °F 51.8 °F 88% 30.48 in 6.2 mi West 8.1 mph - N/A   Mostly Cloudy
11:30 PM 55.4 °F 51.8 °F 88% 30.48 in 6.2 mi West 6.9 mph - N/A   Mostly Cloudy